When you browse on this site, cookies collect data to enhance your experience and personalize the content and advertising you see.
Visit our Privacy Policy to learn more. By continuing to use the site, you agree to this use of cookies and data.
  • In Belgium
  • List of Countries
  • For 7 days
  • Water Temperature
  • Satellite Maps
  • Weather Map
  • Weather Widgets
  • user-avatar
    Login

    Hourly Weather Sokode

    Today, 17 December, Monday

    Time Temperature Precipitation Wind Pressure Humidity
    00:00 +27°C° 0 mm 1 mps 726 mmHg 22%
    01:00 +25°C° 0 mm 0 mps 726 mmHg 23%
    02:00 +24°C° 0 mm 0 mps 726 mmHg 24%
    03:00 +24°C° 0 mm 0 mps 725 mmHg 24%
    04:00 +23°C° 0 mm 0 mps 726 mmHg 25%
    05:00 +23°C° 0 mm 0 mps 726 mmHg 26%
    06:00 +23°C° 0 mm 0 mps 726 mmHg 32%
    07:00 +28°C° 0 mm 1 mps 726 mmHg 29%
    08:00 +30°C° 0 mm 1 mps 727 mmHg 27%
    09:00 +33°C° 0 mm 1 mps 727 mmHg 24%
    10:00 +35°C° 0 mm 1 mps 727 mmHg 21%
    11:00 +37°C° 0 mm 1 mps 726 mmHg 17%
    12:00 +40°C° 0 mm 1 mps 726 mmHg 14%
    13:00 +40°C° 0 mm 2 mps 725 mmHg 14%
    14:00 +40°C° 0 mm 2 mps 725 mmHg 13%
    15:00 +40°C° 0 mm 2 mps 724 mmHg 12%
    16:00 +38°C° 0 mm 2 mps 724 mmHg 14%
    17:00 +35°C° 0 mm 1 mps 724 mmHg 16%
    18:00 +34°C° 0 mm 1 mps 724 mmHg 17%
    19:00 +33°C° 0 mm 1 mps 725 mmHg 18%
    20:00 +32°C° 0 mm 1 mps 725 mmHg 19%
    21:00 +31°C° 0 mm 1 mps 726 mmHg 20%
    22:00 +30°C° 0 mm 1 mps 726 mmHg 20%
    23:00 +30°C° 0 mm 1 mps 726 mmHg 19%

    Tomorrow, 18 December, Tuesday

    Time Temperature Precipitation Wind Pressure Humidity
    00:00 +29°C° 0 mm 1 mps 726 mmHg 19%
    01:00 +28°C° 0 mm 1 mps 725 mmHg 20%
    02:00 +27°C° 0 mm 1 mps 725 mmHg 22%
    03:00 +27°C° 0 mm 1 mps 725 mmHg 23%
    04:00 +26°C° 0 mm 1 mps 725 mmHg 23%
    05:00 +26°C° 0 mm 1 mps 725 mmHg 23%
    06:00 +25°C° 0 mm 2 mps 725 mmHg 24%
    07:00 +27°C° 0 mm 2 mps 726 mmHg 22%
    08:00 +30°C° 0 mm 2 mps 727 mmHg 21%
    09:00 +32°C° 0 mm 2 mps 727 mmHg 20%
    10:00 +35°C° 0 mm 2 mps 727 mmHg 18%
    11:00 +37°C° 0 mm 2 mps 727 mmHg 17%
    12:00 +39°C° 0 mm 2 mps 726 mmHg 15%
    13:00 +39°C° 0 mm 2 mps 726 mmHg 14%
    14:00 +39°C° 0 mm 2 mps 725 mmHg 13%
    15:00 +40°C° 0 mm 1 mps 724 mmHg 12%
    16:00 +37°C° 0 mm 1 mps 724 mmHg 12%
    17:00 +35°C° 0 mm 1 mps 724 mmHg 13%
    18:00 +33°C° 0 mm 1 mps 724 mmHg 14%
    19:00 +32°C° 0 mm 1 mps 725 mmHg 14%
    20:00 +31°C° 0 mm 1 mps 725 mmHg 14%
    21:00 +30°C° 0 mm 1 mps 726 mmHg 14%
    22:00 +30°C° 0 mm 1 mps 726 mmHg 15%
    23:00 +29°C° 0 mm 1 mps 726 mmHg 16%

    Day after tomorrow, 19 December, Wednesday

    Time Temperature Precipitation Wind Pressure Humidity
    00:00 +28°C° 0 mm 1 mps 726 mmHg 18%
    01:00 +27°C° 0 mm 1 mps 725 mmHg 20%
    02:00 +27°C° 0 mm 1 mps 725 mmHg 22%
    03:00 +26°C° 0 mm 1 mps 725 mmHg 24%
    04:00 +26°C° 0 mm 1 mps 725 mmHg 26%
    05:00 +25°C° 0 mm 1 mps 725 mmHg 29%
    06:00 +24°C° 0 mm 1 mps 726 mmHg 31%
    07:00 +27°C° 0 mm 1 mps 726 mmHg 30%
    08:00 +30°C° 0 mm 1 mps 727 mmHg 29%
    09:00 +32°C° 0 mm 1 mps 728 mmHg 28%
    10:00 +34°C° 0 mm 1 mps 727 mmHg 24%
    11:00 +37°C° 0 mm 1 mps 727 mmHg 20%
    12:00 +40°C° 0 mm 1 mps 726 mmHg 16%
    13:00 +40°C° 0 mm 1 mps 726 mmHg 15%
    14:00 +40°C° 0 mm 1 mps 725 mmHg 14%
    15:00 +40°C° 0 mm 1 mps 724 mmHg 13%
    16:00 +37°C° 0 mm 1 mps 724 mmHg 14%
    17:00 +35°C° 0 mm 1 mps 724 mmHg 15%
    18:00 +33°C° 0 mm 1 mps 724 mmHg 16%
    19:00 +32°C° 0 mm 1 mps 725 mmHg 16%
    20:00 +31°C° 0 mm 1 mps 725 mmHg 16%
    21:00 +30°C° 0 mm 1 mps 726 mmHg 17%
    22:00 +30°C° 0 mm 1 mps 726 mmHg 17%
    23:00 +29°C° 0 mm 1 mps 725 mmHg 17%

    20 December, Thursday

    Time Temperature Precipitation Wind Pressure Humidity
    00:00 +28°C° 0 mm 1 mps 725 mmHg 17%
    01:00 +28°C° 0 mm 1 mps 725 mmHg 18%
    02:00 +27°C° 0 mm 1 mps 725 mmHg 19%
    03:00 +26°C° 0 mm 1 mps 724 mmHg 20%
    04:00 +26°C° 0 mm 1 mps 725 mmHg 21%
    05:00 +25°C° 0 mm 1 mps 725 mmHg 22%
    06:00 +25°C° 0 mm 1 mps 725 mmHg 23%
    07:00 +27°C° 0 mm 2 mps 726 mmHg 22%
    08:00 +29°C° 0 mm 2 mps 727 mmHg 20%
    09:00 +32°C° 0 mm 2 mps 727 mmHg 19%
    10:00 +34°C° 0 mm 2 mps 727 mmHg 17%
    11:00 +36°C° 0 mm 2 mps 727 mmHg 15%
    12:00 +38°C° 0 mm 2 mps 726 mmHg 13%
    13:00 +38°C° 0 mm 2 mps 725 mmHg 12%
    14:00 +39°C° 0 mm 2 mps 725 mmHg 11%
    15:00 +39°C° 0 mm 2 mps 724 mmHg 10%
    16:00 +37°C° 0 mm 2 mps 724 mmHg 11%
    17:00 +34°C° 0 mm 1 mps 724 mmHg 12%
    18:00 +33°C° 0 mm 1 mps 724 mmHg 12%
    19:00 +32°C° 0 mm 1 mps 725 mmHg 13%
    20:00 +31°C° 0 mm 1 mps 725 mmHg 13%
    21:00 +30°C° 0 mm 1 mps 726 mmHg 14%
    22:00 +29°C° 0 mm 1 mps 725 mmHg 14%
    23:00 +29°C° 0 mm 1 mps 725 mmHg 14%

    21 December, Friday

    Time Temperature Precipitation Wind Pressure Humidity
    00:00 +28°C° 0 mm 1 mps 725 mmHg 15%
    01:00 +27°C° 0 mm 1 mps 725 mmHg 16%
    02:00 +27°C° 0 mm 1 mps 724 mmHg 17%
    03:00 +26°C° 0 mm 1 mps 724 mmHg 19%
    04:00 +25°C° 0 mm 1 mps 724 mmHg 20%
    05:00 +25°C° 0 mm 1 mps 725 mmHg 21%
    06:00 +24°C° 0 mm 1 mps 725 mmHg 22%
    07:00 +26°C° 0 mm 2 mps 726 mmHg 20%
    08:00 +29°C° 0 mm 2 mps 727 mmHg 19%
    09:00 +31°C° 0 mm 3 mps 727 mmHg 17%
    10:00 +34°C° 0 mm 3 mps 727 mmHg 16%
    11:00 +35°C° 0 mm 2 mps 726 mmHg 14%
    12:00 +37°C° 0 mm 2 mps 726 mmHg 13%
    13:00 +38°C° 0 mm 2 mps 725 mmHg 12%
    14:00 +38°C° 0 mm 2 mps 724 mmHg 11%
    15:00 +39°C° 0 mm 2 mps 723 mmHg 10%
    16:00 +37°C° 0 mm 2 mps 723 mmHg 11%
    17:00 +34°C° 0 mm 1 mps 724 mmHg 11%
    18:00 +32°C° 0 mm 1 mps 724 mmHg 12%
    19:00 +31°C° 0 mm 1 mps 724 mmHg 13%
    20:00 +30°C° 0 mm 1 mps 725 mmHg 13%
    21:00 +29°C° 0 mm 1 mps 725 mmHg 14%
    22:00 +29°C° 0 mm 1 mps 725 mmHg 14%
    23:00 +28°C° 0 mm 2 mps 725 mmHg 14%

    22 December, Saturday

    Time Temperature Precipitation Wind Pressure Humidity
    00:00 +27°C° 0 mm 2 mps 725 mmHg 14%
    01:00 +27°C° 0 mm 2 mps 724 mmHg 16%
    02:00 +26°C° 0 mm 1 mps 724 mmHg 17%
    03:00 +26°C° 0 mm 1 mps 724 mmHg 18%
    04:00 +25°C° 0 mm 1 mps 724 mmHg 18%
    05:00 +24°C° 0 mm 1 mps 724 mmHg 18%
    06:00 +24°C° 0 mm 1 mps 725 mmHg 19%
    07:00 +26°C° 0 mm 2 mps 725 mmHg 18%
    08:00 +28°C° 0 mm 2 mps 726 mmHg 16%
    09:00 +31°C° 0 mm 3 mps 727 mmHg 15%
    10:00 +34°C° 0 mm 2 mps 726 mmHg 14%
    11:00 +35°C° 0 mm 2 mps 726 mmHg 13%
    12:00 +37°C° 0 mm 2 mps 725 mmHg 12%
    13:00 +38°C° 0 mm 2 mps 725 mmHg 12%
    14:00 +38°C° 0 mm 2 mps 724 mmHg 11%
    15:00 +39°C° 0 mm 1 mps 723 mmHg 10%
    16:00 +36°C° 0 mm 1 mps 723 mmHg 11%
    17:00 +34°C° 0 mm 1 mps 723 mmHg 12%
    18:00 +32°C° 0 mm 1 mps 723 mmHg 13%
    19:00 +31°C° 0 mm 1 mps 724 mmHg 14%
    20:00 +30°C° 0 mm 1 mps 724 mmHg 15%
    21:00 +29°C° 0 mm 1 mps 724 mmHg 15%
    22:00 +28°C° 0 mm 1 mps 724 mmHg 16%
    23:00 +28°C° 0 mm 2 mps 724 mmHg 16%
    Show more